contact:dominique.lefevre@mio.osupytheas.fr, maurice.libes@osupytheas.fr, didier.mallarino@osupytheas.fr
Project:EMSO http://www.emso-fr.org/EMSO-France
Depth: 2436.0 m
Title:EMSO Ligure Ouest : Data MII capteur MICROCAT
DateTime_Computer,Latitude,Longitude,Temperature,Conductivity,Pressure,DateTime_Instrument
DateTime_Computer,Latitude,Longitude,degC,S m-1,dbar,DateTime_Instrument
2024-01-02T00:00:12Z,42.805,6.029,13.3033,4.60110,2470.833,2024-1-02T02:02:44Z
2024-01-02T00:03:16Z,42.805,6.029,13.3034,4.60110,2470.81,2024-1-02T02:05:47Z
2024-01-02T00:06:19Z,42.805,6.029,13.3034,4.60110,2470.847,2024-1-02T02:08:50Z
2024-01-02T00:09:22Z,42.805,6.029,13.3030,4.60111,2470.824,2024-1-02T02:11:53Z
2024-01-02T00:12:25Z,42.805,6.029,13.3029,4.60111,2470.787,2024-1-02T02:14:56Z
2024-01-02T00:15:28Z,42.805,6.029,13.3034,4.60110,2470.824,2024-1-02T02:17:59Z
2024-01-02T00:18:31Z,42.805,6.029,13.3031,4.60111,2470.824,2024-1-02T02:21:02Z
2024-01-02T00:21:34Z,42.805,6.029,13.3034,4.60110,2470.81,2024-1-02T02:24:05Z
2024-01-02T00:24:37Z,42.805,6.029,13.3034,4.60110,2470.787,2024-1-02T02:27:08Z
2024-01-02T00:27:40Z,42.805,6.029,13.3029,4.60110,2470.833,2024-1-02T02:30:11Z
2024-01-02T00:30:43Z,42.805,6.029,13.3031,4.60110,2470.777,2024-1-02T02:33:15Z
2024-01-02T00:33:46Z,42.805,6.029,13.3033,4.60112,2470.773,2024-1-02T02:36:18Z
2024-01-02T00:36:49Z,42.805,6.029,13.3031,4.60110,2470.787,2024-1-02T02:39:21Z
2024-01-02T00:39:52Z,42.805,6.029,13.3035,4.60110,2470.787,2024-1-02T02:42:24Z
2024-01-02T00:42:56Z,42.805,6.029,13.3033,4.60109,2470.74,2024-1-02T02:45:27Z
2024-01-02T00:45:59Z,42.805,6.029,13.3033,4.60110,2470.787,2024-1-02T02:48:30Z
2024-01-02T00:49:02Z,42.805,6.029,13.3033,4.60113,2470.81,2024-1-02T02:51:33Z
2024-01-02T00:52:05Z,42.805,6.029,13.3033,4.60112,2470.763,2024-1-02T02:54:36Z
2024-01-02T00:55:08Z,42.805,6.029,13.3031,4.60109,2470.763,2024-1-02T02:57:39Z
2024-01-02T00:58:11Z,42.805,6.029,13.3034,4.60110,2470.787,2024-1-02T03:00:42Z
2024-01-02T01:01:14Z,42.805,6.029,13.3030,4.60109,2470.763,2024-1-02T03:03:45Z
2024-01-02T01:04:17Z,42.805,6.029,13.3031,4.60110,2470.763,2024-1-02T03:06:48Z
2024-01-02T01:07:20Z,42.805,6.029,13.3032,4.60110,2470.787,2024-1-02T03:09:51Z
2024-01-02T01:10:23Z,42.805,6.029,13.3033,4.60109,2470.8,2024-1-02T03:12:54Z
2024-01-02T01:13:26Z,42.805,6.029,13.3031,4.60110,2470.787,2024-1-02T03:15:58Z
2024-01-02T01:16:29Z,42.805,6.029,13.3032,4.60110,2470.777,2024-1-02T03:19:01Z
2024-01-02T01:19:32Z,42.805,6.029,13.3034,4.60111,2470.763,2024-1-02T03:22:04Z
2024-01-02T01:22:35Z,42.805,6.029,13.3029,4.60109,2470.763,2024-1-02T03:25:07Z
2024-01-02T01:25:39Z,42.805,6.029,13.3027,4.60111,2470.8,2024-1-02T03:28:10Z
2024-01-02T01:28:42Z,42.805,6.029,13.3028,4.60109,2470.81,2024-1-02T03:31:13Z
2024-01-02T01:31:45Z,42.805,6.029,13.3030,4.60110,2470.754,2024-1-02T03:34:16Z
2024-01-02T01:34:48Z,42.805,6.029,13.3033,4.60110,2470.763,2024-1-02T03:37:19Z
2024-01-02T01:37:51Z,42.805,6.029,13.3031,4.60110,2470.777,2024-1-02T03:40:22Z
2024-01-02T01:40:54Z,42.805,6.029,13.3031,4.60110,2470.74,2024-1-02T03:43:25Z
2024-01-02T01:43:57Z,42.805,6.029,13.3032,4.60110,2470.8,2024-1-02T03:46:28Z
2024-01-02T01:47:00Z,42.805,6.029,13.3034,4.60110,2470.777,2024-1-02T03:49:31Z
2024-01-02T01:50:03Z,42.805,6.029,13.3030,4.60110,2470.763,2024-1-02T03:52:35Z
2024-01-02T01:53:06Z,42.805,6.029,13.3033,4.60110,2470.777,2024-1-02T03:55:38Z
2024-01-02T01:56:09Z,42.805,6.029,13.3029,4.60111,2470.777,2024-1-02T03:58:41Z
2024-01-02T01:59:12Z,42.805,6.029,13.3033,4.60110,2470.754,2024-1-02T04:01:44Z
2024-01-02T02:02:15Z,42.805,6.029,13.3031,4.60110,2470.787,2024-1-02T04:04:47Z
2024-01-02T02:05:19Z,42.805,6.029,13.3031,4.60111,2470.787,2024-1-02T04:07:50Z
2024-01-02T02:08:22Z,42.805,6.029,13.3031,4.60110,2470.777,2024-1-02T04:10:53Z
2024-01-02T02:11:25Z,42.805,6.029,13.3032,4.60111,2470.74,2024-1-02T04:13:56Z
2024-01-02T02:14:28Z,42.805,6.029,13.3029,4.60112,2470.763,2024-1-02T04:16:59Z
2024-01-02T02:17:31Z,42.805,6.029,13.3034,4.60110,2470.763,2024-1-02T04:20:02Z
2024-01-02T02:20:34Z,42.805,6.029,13.3034,4.60110,2470.787,2024-1-02T04:23:05Z
2024-01-02T02:23:37Z,42.805,6.029,13.3034,4.60110,2470.787,2024-1-02T04:26:08Z
2024-01-02T02:26:40Z,42.805,6.029,13.3034,4.60111,2470.8,2024-1-02T04:29:11Z
2024-01-02T02:29:43Z,42.805,6.029,13.3036,4.60110,2470.763,2024-1-02T04:32:14Z
2024-01-02T02:32:46Z,42.805,6.029,13.3034,4.60111,2470.763,2024-1-02T04:35:18Z
2024-01-02T02:35:49Z,42.805,6.029,13.3032,4.60111,2470.777,2024-1-02T04:38:21Z
2024-01-02T02:38:52Z,42.805,6.029,13.3035,4.60110,2470.763,2024-1-02T04:41:24Z
2024-01-02T02:41:56Z,42.805,6.029,13.3034,4.60110,2470.763,2024-1-02T04:44:27Z
2024-01-02T02:44:59Z,42.805,6.029,13.3030,4.60111,2470.763,2024-1-02T04:47:30Z
2024-01-02T02:48:02Z,42.805,6.029,13.3034,4.60110,2470.763,2024-1-02T04:50:33Z
2024-01-02T02:51:05Z,42.805,6.029,13.3034,4.60110,2470.763,2024-1-02T04:53:36Z
2024-01-02T02:54:08Z,42.805,6.029,13.3034,4.60110,2470.763,2024-1-02T04:56:39Z
2024-01-02T02:57:11Z,42.805,6.029,13.3031,4.60110,2470.763,2024-1-02T04:59:42Z
2024-01-02T03:00:14Z,42.805,6.029,13.3031,4.60110,2470.717,2024-1-02T05:02:45Z
2024-01-02T03:03:17Z,42.805,6.029,13.3032,4.60110,2470.74,2024-1-02T05:05:48Z
2024-01-02T03:06:20Z,42.805,6.029,13.3032,4.60111,2470.74,2024-1-02T05:08:51Z
2024-01-02T03:09:23Z,42.805,6.029,13.3029,4.60111,2470.717,2024-1-02T05:11:55Z
2024-01-02T03:12:26Z,42.805,6.029,13.3028,4.60111,2470.74,2024-1-02T05:14:58Z
2024-01-02T03:15:29Z,42.805,6.029,13.3034,4.60111,2470.717,2024-1-02T05:18:01Z
2024-01-02T03:18:32Z,42.805,6.029,13.3034,4.60111,2470.74,2024-1-02T05:21:04Z
2024-01-02T03:21:35Z,42.805,6.029,13.3037,4.60110,2470.763,2024-1-02T05:24:07Z
2024-01-02T03:24:39Z,42.805,6.029,13.3034,4.60110,2470.693,2024-1-02T05:27:10Z
2024-01-02T03:27:42Z,42.805,6.029,13.3036,4.60110,2470.754,2024-1-02T05:30:13Z
2024-01-02T03:30:45Z,42.805,6.029,13.3032,4.60113,2470.74,2024-1-02T05:33:16Z
2024-01-02T03:33:48Z,42.805,6.029,13.3029,4.60111,2470.74,2024-1-02T05:36:19Z
2024-01-02T03:36:51Z,42.805,6.029,13.3029,4.60111,2470.74,2024-1-02T05:39:22Z
2024-01-02T03:39:54Z,42.805,6.029,13.3034,4.60111,2470.717,2024-1-02T05:42:25Z
2024-01-02T03:42:57Z,42.805,6.029,13.3034,4.60111,2470.717,2024-1-02T05:45:28Z
2024-01-02T03:46:00Z,42.805,6.029,13.3031,4.60110,2470.74,2024-1-02T05:48:31Z
2024-01-02T03:49:03Z,42.805,6.029,13.3033,4.60110,2470.74,2024-1-02T05:51:35Z
2024-01-02T03:52:06Z,42.805,6.029,13.3034,4.60110,2470.717,2024-1-02T05:54:38Z
2024-01-02T03:55:09Z,42.805,6.029,13.3035,4.60110,2470.717,2024-1-02T05:57:41Z
2024-01-02T03:58:12Z,42.805,6.029,13.3035,4.60111,2470.717,2024-1-02T06:00:44Z
2024-01-02T04:01:15Z,42.805,6.029,13.3031,4.60110,2470.717,2024-1-02T06:03:47Z
2024-01-02T04:04:19Z,42.805,6.029,13.3033,4.60114,2470.717,2024-1-02T06:06:50Z
2024-01-02T04:07:22Z,42.805,6.029,13.3033,4.60110,2470.74,2024-1-02T06:09:53Z
2024-01-02T04:10:25Z,42.805,6.029,13.3033,4.60110,2470.74,2024-1-02T06:12:56Z
2024-01-02T04:13:28Z,42.805,6.029,13.3036,4.60110,2470.717,2024-1-02T06:15:59Z
2024-01-02T04:16:31Z,42.805,6.029,13.3032,4.60110,2470.74,2024-1-02T06:19:02Z
2024-01-02T04:19:34Z,42.805,6.029,13.3031,4.60111,2470.717,2024-1-02T06:22:05Z
2024-01-02T04:22:37Z,42.805,6.029,13.3035,4.60110,2470.754,2024-1-02T06:25:08Z
2024-01-02T04:25:40Z,42.805,6.029,13.3034,4.60110,2470.74,2024-1-02T06:28:11Z
2024-01-02T04:28:43Z,42.805,6.029,13.3037,4.60110,2470.693,2024-1-02T06:31:14Z
2024-01-02T04:31:46Z,42.805,6.029,13.3030,4.60110,2470.693,2024-1-02T06:34:18Z
2024-01-02T04:34:49Z,42.805,6.029,13.3033,4.60111,2470.73,2024-1-02T06:37:21Z
2024-01-02T04:37:52Z,42.805,6.029,13.3032,4.60113,2470.717,2024-1-02T06:40:24Z
2024-01-02T04:40:55Z,42.805,6.029,13.3034,4.60111,2470.703,2024-1-02T06:43:27Z
2024-01-02T04:43:59Z,42.805,6.029,13.3034,4.60110,2470.717,2024-1-02T06:46:30Z
2024-01-02T04:47:02Z,42.805,6.029,13.3030,4.60110,2470.717,2024-1-02T06:49:33Z
2024-01-02T04:50:05Z,42.805,6.029,13.3034,4.60110,2470.73,2024-1-02T06:52:36Z
2024-01-02T04:53:08Z,42.805,6.029,13.3036,4.60110,2470.717,2024-1-02T06:55:39Z
2024-01-02T04:56:11Z,42.805,6.029,13.3034,4.60111,2470.763,2024-1-02T06:58:42Z
2024-01-02T04:59:14Z,42.805,6.029,13.3034,4.60110,2470.717,2024-1-02T07:01:45Z
2024-01-02T05:02:17Z,42.805,6.029,13.3032,4.60110,2470.717,2024-1-02T07:04:48Z
2024-01-02T05:05:20Z,42.805,6.029,13.3033,4.60113,2470.74,2024-1-02T07:07:51Z
2024-01-02T05:08:23Z,42.805,6.029,13.3034,4.60110,2470.74,2024-1-02T07:10:54Z
2024-01-02T05:11:26Z,42.805,6.029,13.3031,4.60110,2470.717,2024-1-02T07:13:58Z
2024-01-02T05:14:29Z,42.805,6.029,13.3033,4.60110,2470.73,2024-1-02T07:17:01Z
2024-01-02T05:17:32Z,42.805,6.029,13.3032,4.60110,2470.754,2024-1-02T07:20:04Z
2024-01-02T05:20:35Z,42.805,6.029,13.3034,4.60110,2470.717,2024-1-02T07:23:07Z
2024-01-02T05:23:39Z,42.805,6.029,13.3034,4.60110,2470.717,2024-1-02T07:26:10Z
2024-01-02T05:26:42Z,42.805,6.029,13.3038,4.60110,2470.74,2024-1-02T07:29:13Z
2024-01-02T05:29:45Z,42.805,6.029,13.3033,4.60111,2470.717,2024-1-02T07:32:16Z
2024-01-02T05:32:48Z,42.805,6.029,13.3033,4.60115,2470.717,2024-1-02T07:35:20Z
2024-01-02T05:35:51Z,42.805,6.029,13.3036,4.60111,2470.717,2024-1-02T07:38:23Z
2024-01-02T05:38:54Z,42.805,6.029,13.3033,4.60110,2470.717,2024-1-02T07:41:26Z
2024-01-02T05:41:57Z,42.805,6.029,13.3034,4.60110,2470.74,2024-1-02T07:44:29Z
2024-01-02T05:45:01Z,42.805,6.029,13.3032,4.60111,2470.754,2024-1-02T07:47:32Z
2024-01-02T05:48:04Z,42.805,6.029,13.3033,4.60110,2470.763,2024-1-02T07:50:35Z
2024-01-02T05:51:07Z,42.805,6.029,13.3033,4.60110,2470.74,2024-1-02T07:53:38Z
2024-01-02T05:54:10Z,42.805,6.029,13.3036,4.60111,2470.74,2024-1-02T07:56:41Z
2024-01-02T05:57:13Z,42.805,6.029,13.3032,4.60110,2470.74,2024-1-02T07:59:44Z
2024-01-02T06:00:16Z,42.805,6.029,13.3034,4.60110,2470.754,2024-1-02T08:02:47Z
2024-01-02T06:03:19Z,42.805,6.029,13.3034,4.60110,2470.74,2024-1-02T08:05:50Z
2024-01-02T06:06:22Z,42.805,6.029,13.3033,4.60110,2470.74,2024-1-02T08:08:53Z
2024-01-02T06:09:25Z,42.805,6.029,13.3035,4.60110,2470.74,2024-1-02T08:11:56Z
2024-01-02T06:12:28Z,42.805,6.029,13.3032,4.60110,2470.717,2024-1-02T08:15:00Z
2024-01-02T06:15:31Z,42.805,6.029,13.3037,4.60110,2470.73,2024-1-02T08:18:03Z
2024-01-02T06:18:34Z,42.805,6.029,13.3036,4.60110,2470.74,2024-1-02T08:21:06Z
2024-01-02T06:21:37Z,42.805,6.029,13.3033,4.60111,2470.763,2024-1-02T08:24:09Z
2024-01-02T06:24:41Z,42.805,6.029,13.3037,4.60111,2470.763,2024-1-02T08:27:12Z
2024-01-02T06:27:44Z,42.805,6.029,13.3032,4.60110,2470.763,2024-1-02T08:30:15Z
2024-01-02T06:30:47Z,42.805,6.029,13.3033,4.60114,2470.777,2024-1-02T08:33:18Z
2024-01-02T06:33:50Z,42.805,6.029,13.3034,4.60110,2470.763,2024-1-02T08:36:21Z
2024-01-02T06:36:53Z,42.805,6.029,13.3034,4.60110,2470.74,2024-1-02T08:39:24Z
2024-01-02T06:39:56Z,42.805,6.029,13.3036,4.60110,2470.787,2024-1-02T08:42:27Z
2024-01-02T06:42:59Z,42.805,6.029,13.3037,4.60110,2470.787,2024-1-02T08:45:30Z
2024-01-02T06:46:02Z,42.805,6.029,13.3031,4.60110,2470.74,2024-1-02T08:48:33Z
2024-01-02T06:49:05Z,42.805,6.029,13.3033,4.60111,2470.763,2024-1-02T08:51:36Z
2024-01-02T06:52:08Z,42.805,6.029,13.3031,4.60110,2470.74,2024-1-02T08:54:39Z
2024-01-02T06:55:11Z,42.805,6.029,13.3034,4.60111,2470.8,2024-1-02T08:57:43Z
2024-01-02T06:58:14Z,42.805,6.029,13.3036,4.60110,2470.74,2024-1-02T09:00:46Z
2024-01-02T07:01:17Z,42.805,6.029,13.3030,4.60110,2470.777,2024-1-02T09:03:49Z
2024-01-02T07:04:20Z,42.805,6.029,13.3035,4.60110,2470.763,2024-1-02T09:06:52Z
2024-01-02T07:07:24Z,42.805,6.029,13.3037,4.60110,2470.763,2024-1-02T09:09:55Z
2024-01-02T07:10:27Z,42.805,6.029,13.3035,4.60110,2470.763,2024-1-02T09:12:58Z
2024-01-02T07:13:30Z,42.805,6.029,13.3031,4.60110,2470.787,2024-1-02T09:16:01Z
2024-01-02T07:16:33Z,42.805,6.029,13.3035,4.60110,2470.777,2024-1-02T09:19:04Z
2024-01-02T07:19:36Z,42.805,6.029,13.3034,4.60110,2470.787,2024-1-02T09:22:07Z
2024-01-02T07:22:39Z,42.805,6.029,13.3036,4.60113,2470.8,2024-1-02T09:25:10Z
2024-01-02T07:25:42Z,42.805,6.029,13.3031,4.60110,2470.763,2024-1-02T09:28:13Z
2024-01-02T07:28:45Z,42.805,6.029,13.3033,4.60110,2470.763,2024-1-02T09:31:16Z
2024-01-02T07:31:48Z,42.805,6.029,13.3031,4.60110,2470.763,2024-1-02T09:34:20Z
2024-01-02T07:34:51Z,42.805,6.029,13.3036,4.60110,2470.787,2024-1-02T09:37:23Z
2024-01-02T07:37:54Z,42.805,6.029,13.3032,4.60110,2470.777,2024-1-02T09:40:26Z
2024-01-02T07:40:57Z,42.805,6.029,13.3029,4.60110,2470.824,2024-1-02T09:43:29Z
2024-01-02T07:44:00Z,42.805,6.029,13.3034,4.60110,2470.787,2024-1-02T09:46:32Z
2024-01-02T07:47:04Z,42.805,6.029,13.3031,4.60110,2470.824,2024-1-02T09:49:35Z
2024-01-02T07:50:07Z,42.805,6.029,13.3031,4.60110,2470.81,2024-1-02T09:52:38Z
2024-01-02T07:53:10Z,42.805,6.029,13.3031,4.60110,2470.787,2024-1-02T09:55:41Z
2024-01-02T07:56:13Z,42.805,6.029,13.3032,4.60110,2470.787,2024-1-02T09:58:44Z
2024-01-02T07:59:16Z,42.805,6.029,13.3031,4.60110,2470.824,2024-1-02T10:01:47Z
2024-01-02T08:02:19Z,42.805,6.029,13.3033,4.60110,2470.824,2024-1-02T10:04:50Z
2024-01-02T08:05:22Z,42.805,6.029,13.3034,4.60110,2470.8,2024-1-02T10:07:53Z
2024-01-02T08:08:25Z,42.805,6.029,13.3033,4.60111,2470.833,2024-1-02T10:10:56Z
2024-01-02T08:11:28Z,42.805,6.029,13.3035,4.60110,2470.833,2024-1-02T10:13:59Z
2024-01-02T08:14:31Z,42.805,6.029,13.3030,4.60110,2470.833,2024-1-02T10:17:03Z
2024-01-02T08:17:34Z,42.805,6.029,13.3034,4.60110,2470.833,2024-1-02T10:20:06Z
2024-01-02T08:20:37Z,42.805,6.029,13.3029,4.60110,2470.847,2024-1-02T10:23:09Z
2024-01-02T08:23:41Z,42.805,6.029,13.3029,4.60111,2470.871,2024-1-02T10:26:12Z
2024-01-02T08:26:44Z,42.805,6.029,13.3034,4.60110,2470.8,2024-1-02T10:29:15Z
2024-01-02T08:29:47Z,42.805,6.029,13.3031,4.60111,2470.88,2024-1-02T10:32:18Z
2024-01-02T08:32:50Z,42.805,6.029,13.3034,4.60110,2470.857,2024-1-02T10:35:21Z
2024-01-02T08:35:53Z,42.805,6.029,13.3034,4.60111,2470.847,2024-1-02T10:38:24Z
2024-01-02T08:38:56Z,42.805,6.029,13.3034,4.60111,2470.833,2024-1-02T10:41:27Z
2024-01-02T08:41:59Z,42.805,6.029,13.3034,4.60111,2470.88,2024-1-02T10:44:30Z
2024-01-02T08:45:02Z,42.805,6.029,13.3036,4.60110,2470.857,2024-1-02T10:47:33Z
2024-01-02T08:48:05Z,42.805,6.029,13.3033,4.60110,2470.871,2024-1-02T10:50:36Z
2024-01-02T08:51:08Z,42.805,6.029,13.3031,4.60114,2470.871,2024-1-02T10:53:40Z
2024-01-02T08:54:11Z,42.805,6.029,13.3031,4.60110,2470.857,2024-1-02T10:56:43Z
2024-01-02T08:57:14Z,42.805,6.029,13.3034,4.60110,2470.871,2024-1-02T10:59:46Z
2024-01-02T09:00:17Z,42.805,6.029,13.3033,4.60111,2470.857,2024-1-02T11:02:49Z
2024-01-02T09:03:21Z,42.805,6.029,13.3036,4.60112,2470.833,2024-1-02T11:05:52Z
2024-01-02T09:06:24Z,42.805,6.029,13.3036,4.60112,2470.88,2024-1-02T11:08:55Z
2024-01-02T09:09:27Z,42.805,6.029,13.3034,4.60110,2470.894,2024-1-02T11:11:58Z
2024-01-02T09:12:30Z,42.805,6.029,13.3031,4.60111,2470.857,2024-1-02T11:15:01Z
2024-01-02T09:15:33Z,42.805,6.029,13.3030,4.60110,2470.904,2024-1-02T11:18:04Z
2024-01-02T09:18:36Z,42.805,6.029,13.3031,4.60110,2470.894,2024-1-02T11:21:07Z
2024-01-02T09:21:39Z,42.805,6.029,13.3031,4.60111,2470.904,2024-1-02T11:24:10Z
2024-01-02T09:24:42Z,42.805,6.029,13.3037,4.60110,2470.857,2024-1-02T11:27:13Z
2024-01-02T09:27:45Z,42.805,6.029,13.3033,4.60111,2470.917,2024-1-02T11:30:17Z
2024-01-02T09:30:48Z,42.805,6.029,13.3031,4.60111,2470.88,2024-1-02T11:33:19Z
2024-01-02T09:33:51Z,42.805,6.029,13.3036,4.60111,2470.904,2024-1-02T11:36:22Z
2024-01-02T09:36:54Z,42.805,6.029,13.3032,4.60111,2470.88,2024-1-02T11:39:25Z
2024-01-02T09:39:57Z,42.805,6.029,13.3034,4.60110,2470.88,2024-1-02T11:42:28Z
2024-01-02T09:43:00Z,42.805,6.029,13.3034,4.60110,2470.927,2024-1-02T11:45:31Z
2024-01-02T09:46:03Z,42.805,6.029,13.3035,4.60110,2470.904,2024-1-02T11:48:34Z
2024-01-02T09:49:06Z,42.805,6.029,13.3033,4.60112,2470.94,2024-1-02T11:51:37Z
2024-01-02T09:52:09Z,42.805,6.029,13.3034,4.60111,2470.917,2024-1-02T11:54:41Z
2024-01-02T09:55:12Z,42.805,6.029,13.3033,4.60111,2470.964,2024-1-02T11:57:44Z
2024-01-02T09:58:15Z,42.805,6.029,13.3031,4.60111,2470.94,2024-1-02T12:00:47Z
2024-01-02T10:01:18Z,42.805,6.029,13.3035,4.60110,2470.904,2024-1-02T12:03:50Z
2024-01-02T10:04:22Z,42.805,6.029,13.3034,4.60111,2470.904,2024-1-02T12:06:53Z
2024-01-02T10:07:25Z,42.805,6.029,13.3032,4.60112,2470.88,2024-1-02T12:09:56Z
2024-01-02T10:10:28Z,42.805,6.029,13.3034,4.60112,2470.904,2024-1-02T12:12:59Z
2024-01-02T10:13:31Z,42.805,6.029,13.3031,4.60112,2470.917,2024-1-02T12:16:02Z
2024-01-02T10:16:34Z,42.805,6.029,13.3035,4.60110,2470.927,2024-1-02T12:19:05Z
2024-01-02T10:19:37Z,42.805,6.029,13.3034,4.60111,2470.88,2024-1-02T12:22:08Z
2024-01-02T10:22:40Z,42.805,6.029,13.3034,4.60112,2470.904,2024-1-02T12:25:11Z
2024-01-02T10:25:43Z,42.805,6.029,13.3034,4.60111,2470.88,2024-1-02T12:28:14Z
2024-01-02T10:28:46Z,42.805,6.029,13.3031,4.60111,2470.904,2024-1-02T12:31:17Z
2024-01-02T10:31:49Z,42.805,6.029,13.3034,4.60112,2470.904,2024-1-02T12:34:21Z
2024-01-02T10:34:52Z,42.805,6.029,13.3034,4.60111,2470.927,2024-1-02T12:37:24Z
2024-01-02T10:37:55Z,42.805,6.029,13.3032,4.60110,2470.913,2024-1-02T12:40:27Z
2024-01-02T10:40:58Z,42.805,6.029,13.3031,4.60111,2470.94,2024-1-02T12:43:30Z
2024-01-02T10:44:02Z,42.805,6.029,13.3031,4.60110,2470.94,2024-1-02T12:46:33Z
2024-01-02T10:47:05Z,42.805,6.029,13.3034,4.60110,2470.88,2024-1-02T12:49:36Z
2024-01-02T10:50:08Z,42.805,6.029,13.3031,4.60111,2470.917,2024-1-02T12:52:39Z
2024-01-02T10:53:11Z,42.805,6.029,13.3034,4.60112,2470.894,2024-1-02T12:55:42Z
2024-01-02T10:56:14Z,42.805,6.029,13.3036,4.60111,2470.904,2024-1-02T12:58:45Z
2024-01-02T10:59:17Z,42.805,6.029,13.3032,4.60114,2470.927,2024-1-02T13:01:48Z
2024-01-02T11:02:20Z,42.805,6.029,13.3036,4.60111,2470.89,2024-1-02T13:04:51Z
2024-01-02T11:05:23Z,42.805,6.029,13.3036,4.60112,2470.94,2024-1-02T13:07:54Z
2024-01-02T11:08:26Z,42.805,6.029,13.3031,4.60113,2470.904,2024-1-02T13:10:57Z
2024-01-02T11:11:29Z,42.805,6.029,13.3031,4.60110,2470.904,2024-1-02T13:14:01Z
2024-01-02T11:14:32Z,42.805,6.029,13.3031,4.60114,2470.917,2024-1-02T13:17:04Z
2024-01-02T11:17:35Z,42.805,6.029,13.3038,4.60113,2470.94,2024-1-02T13:20:07Z
2024-01-02T11:20:38Z,42.805,6.029,13.3030,4.60115,2470.927,2024-1-02T13:23:10Z
2024-01-02T11:23:42Z,42.805,6.029,13.3034,4.60112,2470.94,2024-1-02T13:26:13Z
2024-01-02T11:26:45Z,42.805,6.029,13.3037,4.60113,2470.917,2024-1-02T13:29:16Z
2024-01-02T11:29:48Z,42.805,6.029,13.3031,4.60112,2470.964,2024-1-02T13:32:19Z
2024-01-02T11:32:51Z,42.805,6.029,13.3034,4.60112,2470.904,2024-1-02T13:35:22Z
2024-01-02T11:35:54Z,42.805,6.029,13.3034,4.60115,2470.917,2024-1-02T13:38:25Z
2024-01-02T11:38:57Z,42.805,6.029,13.3033,4.60111,2470.94,2024-1-02T13:41:29Z
2024-01-02T11:42:00Z,42.805,6.029,13.3033,4.60113,2470.927,2024-1-02T13:44:32Z
2024-01-02T11:45:03Z,42.805,6.029,13.3033,4.60114,2470.904,2024-1-02T13:47:35Z
2024-01-02T11:48:06Z,42.805,6.029,13.3033,4.60111,2470.904,2024-1-02T13:50:38Z
2024-01-02T11:51:10Z,42.805,6.029,13.3033,4.60115,2470.94,2024-1-02T13:53:41Z
2024-01-02T11:54:13Z,42.805,6.029,13.3038,4.60114,2470.917,2024-1-02T13:56:44Z
2024-01-02T11:57:16Z,42.805,6.029,13.3032,4.60111,2470.894,2024-1-02T13:59:47Z
2024-01-02T12:00:19Z,42.805,6.029,13.3031,4.60116,2470.94,2024-1-02T14:02:50Z
2024-01-02T12:03:22Z,42.805,6.029,13.3037,4.60112,2470.904,2024-1-02T14:05:53Z
2024-01-02T12:06:25Z,42.805,6.029,13.3033,4.60112,2470.904,2024-1-02T14:08:56Z
2024-01-02T12:09:28Z,42.805,6.029,13.3031,4.60112,2470.904,2024-1-02T14:11:59Z
2024-01-02T12:12:31Z,42.805,6.029,13.3034,4.60113,2470.94,2024-1-02T14:15:02Z
2024-01-02T12:15:34Z,42.805,6.029,13.3036,4.60113,2470.88,2024-1-02T14:18:06Z
2024-01-02T12:18:37Z,42.805,6.029,13.3034,4.60112,2470.871,2024-1-02T14:21:09Z
2024-01-02T12:21:40Z,42.805,6.029,13.3036,4.60111,2470.904,2024-1-02T14:24:12Z
2024-01-02T12:24:43Z,42.805,6.029,13.3038,4.60113,2470.866,2024-1-02T14:27:15Z
2024-01-02T12:27:47Z,42.805,6.029,13.3036,4.60113,2470.88,2024-1-02T14:30:18Z
2024-01-02T12:30:50Z,42.805,6.029,13.3032,4.60113,2470.917,2024-1-02T14:33:21Z
2024-01-02T12:33:53Z,42.805,6.029,13.3036,4.60112,2470.894,2024-1-02T14:36:24Z
2024-01-02T12:36:56Z,42.805,6.029,13.3032,4.60113,2470.89,2024-1-02T14:39:27Z
2024-01-02T12:39:59Z,42.805,6.029,13.3032,4.60114,2470.88,2024-1-02T14:42:30Z
2024-01-02T12:43:02Z,42.805,6.029,13.3031,4.60111,2470.917,2024-1-02T14:45:33Z
2024-01-02T12:46:05Z,42.805,6.029,13.3031,4.60112,2470.871,2024-1-02T14:48:36Z
2024-01-02T12:49:08Z,42.805,6.029,13.3033,4.60112,2470.88,2024-1-02T14:51:39Z
2024-01-02T12:52:11Z,42.805,6.029,13.3034,4.60111,2470.871,2024-1-02T14:54:43Z
2024-01-02T12:55:14Z,42.805,6.029,13.3034,4.60113,2470.904,2024-1-02T14:57:46Z
2024-01-02T12:58:17Z,42.805,6.029,13.3036,4.60111,2470.857,2024-1-02T15:00:49Z
2024-01-02T13:01:20Z,42.805,6.029,13.3033,4.60113,2470.88,2024-1-02T15:03:52Z
2024-01-02T13:04:23Z,42.805,6.029,13.3028,4.60113,2470.88,2024-1-02T15:06:55Z
2024-01-02T13:07:27Z,42.805,6.029,13.3031,4.60112,2470.88,2024-1-02T15:09:58Z
2024-01-02T13:10:30Z,42.805,6.029,13.3032,4.60112,2470.904,2024-1-02T15:13:01Z
2024-01-02T13:13:33Z,42.805,6.029,13.3034,4.60112,2470.857,2024-1-02T15:16:04Z
2024-01-02T13:16:36Z,42.805,6.029,13.3034,4.60113,2470.894,2024-1-02T15:19:07Z
2024-01-02T13:19:39Z,42.805,6.029,13.3034,4.60112,2470.89,2024-1-02T15:22:10Z
2024-01-02T13:22:42Z,42.805,6.029,13.3032,4.60111,2470.857,2024-1-02T15:25:13Z
2024-01-02T13:25:45Z,42.805,6.029,13.3035,4.60112,2470.871,2024-1-02T15:28:16Z
2024-01-02T13:28:48Z,42.805,6.029,13.3032,4.60114,2470.833,2024-1-02T15:31:19Z
2024-01-02T13:31:50Z,42.805,6.029,13.3032,4.60112,2470.88,2024-1-02T15:34:22Z
2024-01-02T13:34:53Z,42.805,6.029,13.3030,4.60111,2470.88,2024-1-02T15:37:25Z
2024-01-02T13:37:56Z,42.805,6.029,13.3037,4.60114,2470.871,2024-1-02T15:40:28Z
2024-01-02T13:40:59Z,42.805,6.029,13.3034,4.60112,2470.894,2024-1-02T15:43:31Z
2024-01-02T13:44:03Z,42.805,6.029,13.3033,4.60113,2470.857,2024-1-02T15:46:34Z
2024-01-02T13:47:06Z,42.805,6.029,13.3032,4.60112,2470.88,2024-1-02T15:49:37Z
2024-01-02T13:50:09Z,42.805,6.029,13.3034,4.60114,2470.894,2024-1-02T15:52:40Z
2024-01-02T13:53:12Z,42.805,6.029,13.3034,4.60112,2470.88,2024-1-02T15:55:43Z
2024-01-02T13:56:15Z,42.805,6.029,13.3033,4.60112,2470.894,2024-1-02T15:58:46Z
2024-01-02T13:59:18Z,42.805,6.029,13.3036,4.60114,2470.833,2024-1-02T16:01:49Z
2024-01-02T14:02:21Z,42.805,6.029,13.3034,4.60112,2470.88,2024-1-02T16:04:52Z
2024-01-02T14:05:24Z,42.805,6.029,13.3035,4.60112,2470.88,2024-1-02T16:07:55Z
2024-01-02T14:08:27Z,42.805,6.029,13.3035,4.60112,2470.857,2024-1-02T16:10:59Z
2024-01-02T14:11:30Z,42.805,6.029,13.3035,4.60112,2470.857,2024-1-02T16:14:02Z
2024-01-02T14:14:33Z,42.805,6.029,13.3037,4.60112,2470.847,2024-1-02T16:17:05Z
2024-01-02T14:17:36Z,42.805,6.029,13.3031,4.60112,2470.857,2024-1-02T16:20:08Z
2024-01-02T14:20:39Z,42.805,6.029,13.3036,4.60113,2470.857,2024-1-02T16:23:11Z
2024-01-02T14:23:43Z,42.805,6.029,13.3031,4.60112,2470.857,2024-1-02T16:26:14Z
2024-01-02T14:26:46Z,42.805,6.029,13.3036,4.60113,2470.847,2024-1-02T16:29:17Z
2024-01-02T14:29:49Z,42.805,6.029,13.3033,4.60112,2470.857,2024-1-02T16:32:20Z
2024-01-02T14:32:52Z,42.805,6.029,13.3036,4.60112,2470.871,2024-1-02T16:35:23Z
2024-01-02T14:35:55Z,42.805,6.029,13.3036,4.60112,2470.833,2024-1-02T16:38:26Z
2024-01-02T14:38:58Z,42.805,6.029,13.3034,4.60113,2470.857,2024-1-02T16:41:29Z
2024-01-02T14:42:01Z,42.805,6.029,13.3033,4.60113,2470.847,2024-1-02T16:44:32Z
2024-01-02T14:45:04Z,42.805,6.029,13.3034,4.60112,2470.833,2024-1-02T16:47:35Z
2024-01-02T14:48:07Z,42.805,6.029,13.3037,4.60112,2470.833,2024-1-02T16:50:39Z
2024-01-02T14:51:10Z,42.805,6.029,13.3035,4.60112,2470.857,2024-1-02T16:53:42Z
2024-01-02T14:54:13Z,42.805,6.029,13.3032,4.60114,2470.833,2024-1-02T16:56:45Z
2024-01-02T14:57:16Z,42.805,6.029,13.3034,4.60114,2470.833,2024-1-02T16:59:48Z
2024-01-02T15:00:20Z,42.805,6.029,13.3034,4.60111,2470.847,2024-1-02T17:02:51Z
2024-01-02T15:03:23Z,42.805,6.029,13.3034,4.60112,2470.81,2024-1-02T17:05:54Z
2024-01-02T15:06:26Z,42.805,6.029,13.3034,4.60112,2470.833,2024-1-02T17:08:57Z
2024-01-02T15:09:29Z,42.805,6.029,13.3033,4.60112,2470.824,2024-1-02T17:12:00Z
2024-01-02T15:12:32Z,42.805,6.029,13.3032,4.60111,2470.81,2024-1-02T17:15:03Z